Time,TemperatureF,DewpointF,PressureIn,WindDirection,WindDirectionDegrees,WindSpeedMPH,WindSpeedGustMPH,Humidity,HourlyPrecipIn,Conditions,Clouds,dailyrainin,SolarRadiationWatts/m^2,SoftwareType,DateUTC
2013-04-11 00:00:00,45.8,44.1,29.90,East,94,0.0,7.0,94,0.00,,,0.12,0,HR-IXPWINDi_r2_v1.2.,2013-04-11 04:00:00,
2013-04-11 00:05:00,45.9,44.2,29.91,ESE,102,0.0,5.0,94,0.00,,,0.12,0,HR-IXPWINDi_r2_v1.2.,2013-04-11 04:05:00,
2013-04-11 00:10:00,46.0,44.3,29.90,East,101,0.0,3.0,94,0.00,,,0.12,0,HR-IXPWINDi_r2_v1.2.,2013-04-11 04:10:00,
2013-04-11 00:15:00,45.8,44.1,29.90,ESE,109,0.0,2.0,94,0.00,,,0.13,0,HR-IXPWINDi_r2_v1.2.,2013-04-11 04:15:00,
2013-04-11 00:20:00,45.5,43.5,29.90,East,101,3.0,4.0,93,0.00,,,0.13,0,HR-IXPWINDi_r2_v1.2.,2013-04-11 04:20:00,
2013-04-11 00:26:00,45.2,43.5,29.88,ESE,111,5.0,8.0,94,0.00,,,0.13,0,HR-IXPWINDi_r2_v1.2.,2013-04-11 04:26:00,
2013-04-11 00:31:00,45.1,43.4,29.86,East,90,2.0,8.0,94,0.04,,,0.13,0,HR-IXPWINDi_r2_v1.2.,2013-04-11 04:31:00,
2013-04-11 00:36:00,45.1,43.4,29.88,SSE,155,4.0,8.0,94,0.04,,,0.14,0,HR-IXPWINDi_r2_v1.2.,2013-04-11 04:36:00,
2013-04-11 00:41:00,45.1,43.4,29.90,East,92,1.0,8.0,94,0.04,,,0.14,0,HR-IXPWINDi_r2_v1.2.,2013-04-11 04:41:00,
2013-04-11 00:47:00,45.1,43.4,29.88,East,90,2.0,7.0,94,0.04,,,0.14,0,HR-IXPWINDi_r2_v1.2.,2013-04-11 04:47:00,
2013-04-11 00:52:00,45.1,43.4,29.88,ESE,123,7.0,8.0,94,0.00,,,0.14,0,HR-IXPWINDi_r2_v1.2.,2013-04-11 04:52:00,
2013-04-11 00:57:00,45.2,43.5,29.88,East,84,3.0,8.0,94,0.00,,,0.14,0,HR-IXPWINDi_r2_v1.2.,2013-04-11 04:57:00,
2013-04-11 01:03:00,45.2,43.5,29.88,ESE,108,3.0,8.0,94,0.00,,,0.14,0,HR-IXPWINDi_r2_v1.2.,2013-04-11 05:03:00,
2013-04-11 01:08:00,45.3,43.6,29.88,East,95,5.0,7.0,94,0.00,,,0.14,0,HR-IXPWINDi_r2_v1.2.,2013-04-11 05:08:00,
2013-04-11 01:13:00,45.2,43.5,29.89,ENE,76,2.0,7.0,94,0.00,,,0.14,0,HR-IXPWINDi_r2_v1.2.,2013-04-11 05:13:00,
2013-04-11 01:18:00,45.3,43.6,29.89,ENE,65,2.0,7.0,94,0.00,,,0.14,0,HR-IXPWINDi_r2_v1.2.,2013-04-11 05:18:00,
2013-04-11 01:23:00,45.3,43.6,29.88,ESE,103,0.0,6.0,94,0.00,,,0.14,0,HR-IXPWINDi_r2_v1.2.,2013-04-11 05:23:00,
2013-04-11 01:29:00,45.2,43.5,29.87,ENE,78,4.0,5.0,94,0.00,,,0.14,0,HR-IXPWINDi_r2_v1.2.,2013-04-11 05:29:00,
2013-04-11 01:34:00,45.1,43.4,29.87,East,82,5.0,6.0,94,0.00,,,0.14,0,HR-IXPWINDi_r2_v1.2.,2013-04-11 05:34:00,
2013-04-11 01:39:00,45.0,43.3,29.87,NE,53,3.0,6.0,94,0.00,,,0.14,0,HR-IXPWINDi_r2_v1.2.,2013-04-11 05:39:00,
2013-04-11 01:44:00,45.1,43.4,29.87,NE,37,4.0,6.0,94,0.00,,,0.14,0,HR-IXPWINDi_r2_v1.2.,2013-04-11 05:44:00,
2013-04-11 01:49:00,44.9,43.2,29.87,NE,53,4.0,7.0,94,0.00,,,0.14,0,HR-IXPWINDi_r2_v1.2.,2013-04-11 05:49:00,
2013-04-11 01:55:00,44.9,43.2,29.87,NNE,32,4.0,7.0,94,0.00,,,0.15,0,HR-IXPWINDi_r2_v1.2.,2013-04-11 05:55:00,
2013-04-11 02:00:00,44.7,43.0,29.86,NE,53,5.0,6.0,94,0.00,,,0.15,0,HR-IXPWINDi_r2_v1.2.,2013-04-11 06:00:00,
2013-04-11 02:05:00,44.5,43.1,29.85,ENE,63,5.0,6.0,95,0.00,,,0.15,0,HR-IXPWINDi_r2_v1.2.,2013-04-11 06:05:00,
2013-04-11 02:10:00,44.3,42.9,29.85,ENE,60,4.0,7.0,95,0.00,,,0.15,0,HR-IXPWINDi_r2_v1.2.,2013-04-11 06:10:00,
2013-04-11 02:15:00,44.3,42.9,29.85,NNE,33,3.0,7.0,95,0.00,,,0.15,0,HR-IXPWINDi_r2_v1.2.,2013-04-11 06:15:00,
2013-04-11 02:20:00,44.3,42.9,29.85,NE,55,4.0,7.0,95,0.00,,,0.15,0,HR-IXPWINDi_r2_v1.2.,2013-04-11 06:20:00,
2013-04-11 02:25:00,44.2,42.8,29.84,NE,37,4.0,6.0,95,0.00,,,0.15,0,HR-IXPWINDi_r2_v1.2.,2013-04-11 06:25:00,
2013-04-11 02:30:00,44.1,42.7,29.84,NE,46,4.0,6.0,95,0.00,,,0.15,0,HR-IXPWINDi_r2_v1.2.,2013-04-11 06:30:00,
2013-04-11 02:36:00,44.2,42.8,29.84,NE,53,5.0,5.0,95,0.00,,,0.15,0,HR-IXPWINDi_r2_v1.2.,2013-04-11 06:36:00,
2013-04-11 02:41:00,44.2,42.8,29.84,NNE,33,3.0,6.0,95,0.00,,,0.15,0,HR-IXPWINDi_r2_v1.2.,2013-04-11 06:41:00,
2013-04-11 02:46:00,44.1,42.7,29.84,NNE,33,2.0,6.0,95,0.00,,,0.15,0,HR-IXPWINDi_r2_v1.2.,2013-04-11 06:46:00,
2013-04-11 02:51:00,44.1,42.7,29.83,NE,34,3.0,6.0,95,0.00,,,0.15,0,HR-IXPWINDi_r2_v1.2.,2013-04-11 06:51:00,
2013-04-11 02:56:00,44.2,42.8,29.83,ENE,62,2.0,8.0,95,0.00,,,0.15,0,HR-IXPWINDi_r2_v1.2.,2013-04-11 06:56:00,
2013-04-11 03:02:00,44.2,43.1,29.83,NE,46,3.0,8.0,96,0.00,,,0.15,0,HR-IXPWINDi_r2_v1.2.,2013-04-11 07:02:00,
2013-04-11 03:07:00,44.3,43.2,29.83,NNE,30,4.0,6.0,96,0.00,,,0.15,0,HR-IXPWINDi_r2_v1.2.,2013-04-11 07:07:00,
2013-04-11 03:12:00,44.4,43.3,29.84,NNE,25,2.0,7.0,96,0.00,,,0.15,0,HR-IXPWINDi_r2_v1.2.,2013-04-11 07:12:00,
2013-04-11 03:17:00,44.4,43.3,29.85,NE,36,4.0,7.0,96,0.00,,,0.15,0,HR-IXPWINDi_r2_v1.2.,2013-04-11 07:17:00,
2013-04-11 03:22:00,44.4,43.3,29.85,NE,44,1.0,6.0,96,0.00,,,0.15,0,HR-IXPWINDi_r2_v1.2.,2013-04-11 07:22:00,
2013-04-11 03:27:00,44.5,43.4,29.85,NE,44,0.0,6.0,96,0.00,,,0.15,0,HR-IXPWINDi_r2_v1.2.,2013-04-11 07:27:00,
2013-04-11 03:33:00,44.6,43.5,29.85,NE,39,3.0,3.0,96,0.00,,,0.15,0,HR-IXPWINDi_r2_v1.2.,2013-04-11 07:33:00,
2013-04-11 03:38:00,44.5,43.4,29.85,NNE,26,2.0,3.0,96,0.00,,,0.15,0,HR-IXPWINDi_r2_v1.2.,2013-04-11 07:38:00,
2013-04-11 03:43:00,44.6,43.5,29.85,NNE,33,3.0,4.0,96,0.00,,,0.15,0,HR-IXPWINDi_r2_v1.2.,2013-04-11 07:43:00,
2013-04-11 03:48:00,44.6,43.5,29.84,NE,44,1.0,5.0,96,0.00,,,0.15,0,HR-IXPWINDi_r2_v1.2.,2013-04-11 07:48:00,
2013-04-11 03:53:00,44.5,43.4,29.84,East,86,2.0,5.0,96,0.00,,,0.15,0,HR-IXPWINDi_r2_v1.2.,2013-04-11 07:53:00,
2013-04-11 03:58:00,44.3,43.2,29.84,NE,47,4.0,5.0,96,0.00,,,0.15,0,HR-IXPWINDi_r2_v1.2.,2013-04-11 07:58:00,
2013-04-11 04:04:00,44.3,43.2,29.85,ENE,63,2.0,5.0,96,0.00,,,0.15,0,HR-IXPWINDi_r2_v1.2.,2013-04-11 08:04:00,
2013-04-11 04:09:00,44.2,43.1,29.85,ENE,63,2.0,5.0,96,0.00,,,0.15,0,HR-IXPWINDi_r2_v1.2.,2013-04-11 08:09:00,
2013-04-11 04:14:00,44.2,43.1,29.86,ENE,63,2.0,5.0,96,0.00,,,0.15,0,HR-IXPWINDi_r2_v1.2.,2013-04-11 08:14:00,
2013-04-11 04:19:00,44.3,43.2,29.85,NE,36,4.0,5.0,96,0.00,,,0.15,0,HR-IXPWINDi_r2_v1.2.,2013-04-11 08:19:00,
2013-04-11 04:24:00,44.4,43.3,29.86,NE,38,2.0,5.0,96,0.00,,,0.15,0,HR-IXPWINDi_r2_v1.2.,2013-04-11 08:24:00,
2013-04-11 04:29:00,44.5,43.4,29.84,NE,38,4.0,5.0,96,0.00,,,0.15,0,HR-IXPWINDi_r2_v1.2.,2013-04-11 08:29:00,
2013-04-11 04:34:00,44.5,43.4,29.85,NE,47,3.0,6.0,96,0.00,,,0.15,0,HR-IXPWINDi_r2_v1.2.,2013-04-11 08:34:00,
2013-04-11 04:40:00,44.5,43.4,29.85,NE,49,2.0,6.0,96,0.00,,,0.15,0,HR-IXPWINDi_r2_v1.2.,2013-04-11 08:40:00,
2013-04-11 04:45:00,44.5,43.4,29.85,NE,49,0.0,4.0,96,0.00,,,0.15,0,HR-IXPWINDi_r2_v1.2.,2013-04-11 08:45:00,
2013-04-11 04:50:00,44.6,43.5,29.85,NE,49,1.0,2.0,96,0.00,,,0.15,0,HR-IXPWINDi_r2_v1.2.,2013-04-11 08:50:00,
2013-04-11 04:56:00,44.7,43.6,29.84,NE,45,2.0,4.0,96,0.00,,,0.15,0,HR-IXPWINDi_r2_v1.2.,2013-04-11 08:56:00,
2013-04-11 05:01:00,44.8,43.7,29.85,NE,45,0.0,4.0,96,0.00,,,0.15,0,HR-IXPWINDi_r2_v1.2.,2013-04-11 09:01:00,
2013-04-11 05:06:00,44.8,43.7,29.85,ENE,58,2.0,3.0,96,0.00,,,0.15,0,HR-IXPWINDi_r2_v1.2.,2013-04-11 09:06:00,
2013-04-11 05:11:00,44.7,43.6,29.85,ENE,58,1.0,2.0,96,0.00,,,0.16,0,HR-IXPWINDi_r2_v1.2.,2013-04-11 09:11:00,
2013-04-11 05:17:00,44.8,43.7,29.85,NE,35,2.0,4.0,96,0.00,,,0.16,0,HR-IXPWINDi_r2_v1.2.,2013-04-11 09:17:00,
2013-04-11 05:22:00,44.6,43.5,29.85,NE,35,0.0,4.0,96,0.00,,,0.16,0,HR-IXPWINDi_r2_v1.2.,2013-04-11 09:22:00,
2013-04-11 05:27:00,44.8,43.7,29.86,NE,35,2.0,3.0,96,0.00,,,0.16,0,HR-IXPWINDi_r2_v1.2.,2013-04-11 09:27:00,
2013-04-11 05:32:00,44.8,43.7,29.86,NE,35,2.0,4.0,96,0.00,,,0.16,0,HR-IXPWINDi_r2_v1.2.,2013-04-11 09:32:00,
2013-04-11 05:37:00,45.0,43.9,29.86,NNE,25,2.0,5.0,96,0.00,,,0.16,0,HR-IXPWINDi_r2_v1.2.,2013-04-11 09:37:00,
2013-04-11 05:43:00,45.2,44.1,29.87,NNE,15,6.0,7.0,96,0.00,,,0.16,0,HR-IXPWINDi_r2_v1.2.,2013-04-11 09:43:00,
2013-04-11 05:48:00,45.2,44.1,29.88,NNW,346,5.0,8.0,96,0.00,,,0.16,0,HR-IXPWINDi_r2_v1.2.,2013-04-11 09:48:00,
2013-04-11 05:53:00,44.9,43.8,29.89,NNE,17,9.0,14.0,96,0.00,,,0.16,0,HR-IXPWINDi_r2_v1.2.,2013-04-11 09:53:00,
2013-04-11 05:58:00,44.7,43.6,29.89,North,355,8.0,14.0,96,0.00,,,0.16,0,HR-IXPWINDi_r2_v1.2.,2013-04-11 09:58:00,
2013-04-11 06:04:00,44.6,43.5,29.89,NNE,17,7.0,13.0,96,0.00,,,0.16,0,HR-IXPWINDi_r2_v1.2.,2013-04-11 10:04:00,
2013-04-11 06:09:00,44.5,43.4,29.89,NNE,22,7.0,12.0,96,0.00,,,0.16,0,HR-IXPWINDi_r2_v1.2.,2013-04-11 10:09:00,
2013-04-11 06:14:00,44.5,43.4,29.89,NNE,29,7.0,12.0,96,0.00,,,0.16,0,HR-IXPWINDi_r2_v1.2.,2013-04-11 10:14:00,
2013-04-11 06:19:00,44.6,43.5,29.89,North,5,7.0,10.0,96,0.00,,,0.16,0,HR-IXPWINDi_r2_v1.2.,2013-04-11 10:19:00,
2013-04-11 06:24:00,44.6,43.5,29.90,NNE,32,7.0,11.0,96,0.00,,,0.16,0,HR-IXPWINDi_r2_v1.2.,2013-04-11 10:24:00,
2013-04-11 06:29:00,44.6,43.5,29.90,North,355,6.0,11.0,96,0.00,,,0.16,5,HR-IXPWINDi_r2_v1.2.,2013-04-11 10:29:00,
2013-04-11 06:35:00,44.7,43.6,29.92,North,10,5.0,10.0,96,0.00,,,0.16,7,HR-IXPWINDi_r2_v1.2.,2013-04-11 10:35:00,
2013-04-11 06:40:00,44.7,43.6,29.92,North,5,8.0,11.0,96,0.00,,,0.16,7,HR-IXPWINDi_r2_v1.2.,2013-04-11 10:40:00,
2013-04-11 06:45:00,44.7,43.6,29.93,North,360,4.0,11.0,96,0.00,,,0.16,12,HR-IXPWINDi_r2_v1.2.,2013-04-11 10:45:00,
2013-04-11 06:50:00,44.8,43.7,29.92,NNE,27,9.0,11.0,96,0.00,,,0.16,16,HR-IXPWINDi_r2_v1.2.,2013-04-11 10:50:00,
2013-04-11 06:56:00,44.8,43.7,29.92,NNE,30,5.0,12.0,96,0.00,,,0.16,21,HR-IXPWINDi_r2_v1.2.,2013-04-11 10:56:00,
2013-04-11 07:01:00,44.8,43.7,29.93,NNE,19,8.0,12.0,96,0.00,,,0.16,16,HR-IXPWINDi_r2_v1.2.,2013-04-11 11:01:00,
2013-04-11 07:06:00,44.9,43.8,29.93,NNE,15,7.0,14.0,96,0.00,,,0.16,14,HR-IXPWINDi_r2_v1.2.,2013-04-11 11:06:00,
2013-04-11 07:11:00,44.9,43.5,29.93,NNE,26,7.0,14.0,95,0.00,,,0.16,21,HR-IXPWINDi_r2_v1.2.,2013-04-11 11:11:00,
2013-04-11 07:16:00,44.9,43.5,29.94,NNE,20,11.0,13.0,95,0.00,,,0.16,19,HR-IXPWINDi_r2_v1.2.,2013-04-11 11:16:00,
2013-04-11 07:22:00,44.9,43.5,29.94,NNE,22,4.0,15.0,95,0.00,,,0.16,21,HR-IXPWINDi_r2_v1.2.,2013-04-11 11:22:00,
2013-04-11 07:27:00,44.9,43.5,29.94,NNE,21,7.0,15.0,95,0.00,,,0.16,23,HR-IXPWINDi_r2_v1.2.,2013-04-11 11:27:00,
2013-04-11 07:32:00,44.9,43.5,29.94,North,5,11.0,16.0,95,0.00,,,0.16,25,HR-IXPWINDi_r2_v1.2.,2013-04-11 11:32:00,
2013-04-11 07:37:00,45.0,43.6,29.95,NE,37,8.0,16.0,95,0.00,,,0.16,26,HR-IXPWINDi_r2_v1.2.,2013-04-11 11:37:00,
2013-04-11 07:42:00,45.0,43.6,29.95,NE,49,6.0,16.0,95,0.00,,,0.16,33,HR-IXPWINDi_r2_v1.2.,2013-04-11 11:42:00,
2013-04-11 07:48:00,44.9,43.5,29.95,NNW,346,8.0,16.0,95,0.00,,,0.16,46,HR-IXPWINDi_r2_v1.2.,2013-04-11 11:48:00,
2013-04-11 07:53:00,45.0,43.6,29.95,North,9,10.0,16.0,95,0.00,,,0.16,46,HR-IXPWINDi_r2_v1.2.,2013-04-11 11:53:00,
2013-04-11 07:58:00,45.1,43.7,29.95,NNE,32,7.0,13.0,95,0.00,,,0.16,47,HR-IXPWINDi_r2_v1.2.,2013-04-11 11:58:00,
2013-04-11 08:03:00,45.0,43.6,29.95,NNE,21,5.0,13.0,95,0.00,,,0.16,37,HR-IXPWINDi_r2_v1.2.,2013-04-11 12:03:00,
2013-04-11 08:08:00,45.0,43.6,29.96,North,9,8.0,14.0,95,0.00,,,0.16,47,HR-IXPWINDi_r2_v1.2.,2013-04-11 12:08:00,
2013-04-11 08:13:00,45.0,43.6,29.96,NE,45,9.0,14.0,95,0.00,,,0.16,44,HR-IXPWINDi_r2_v1.2.,2013-04-11 12:13:00,
2013-04-11 08:19:00,45.0,43.6,29.96,North,360,10.0,15.0,95,0.00,,,0.16,53,HR-IXPWINDi_r2_v1.2.,2013-04-11 12:19:00,
2013-04-11 08:24:00,44.8,43.4,29.96,NNE,28,12.0,17.0,95,0.00,,,0.16,81,HR-IXPWINDi_r2_v1.2.,2013-04-11 12:24:00,
2013-04-11 08:29:00,44.6,42.9,29.96,North,9,8.0,18.0,94,0.00,,,0.16,49,HR-IXPWINDi_r2_v1.2.,2013-04-11 12:29:00,
2013-04-11 08:34:00,44.8,43.1,29.96,NE,45,6.0,18.0,94,0.00,,,0.16,90,HR-IXPWINDi_r2_v1.2.,2013-04-11 12:34:00,
2013-04-11 08:39:00,45.0,43.0,29.96,North,10,10.0,15.0,93,0.00,,,0.16,125,HR-IXPWINDi_r2_v1.2.,2013-04-11 12:39:00,
2013-04-11 08:45:00,45.4,43.2,29.95,NNE,26,6.0,13.0,92,0.00,,,0.16,130,HR-IXPWINDi_r2_v1.2.,2013-04-11 12:45:00,
2013-04-11 08:50:00,45.7,43.5,29.95,NNE,26,4.0,13.0,92,0.00,,,0.16,153,HR-IXPWINDi_r2_v1.2.,2013-04-11 12:50:00,
2013-04-11 08:55:00,45.8,43.0,29.95,NNE,32,7.0,14.0,90,0.00,,,0.16,158,HR-IXPWINDi_r2_v1.2.,2013-04-11 12:55:00,
2013-04-11 09:00:00,45.8,43.0,29.95,NNE,21,13.0,14.0,90,0.00,,,0.16,188,HR-IXPWINDi_r2_v1.2.,2013-04-11 13:00:00,
2013-04-11 09:05:00,46.0,43.2,29.95,NNE,21,8.0,14.0,90,0.00,,,0.16,181,HR-IXPWINDi_r2_v1.2.,2013-04-11 13:05:00,
2013-04-11 09:10:00,46.2,43.4,29.95,North,5,6.0,14.0,90,0.00,,,0.16,155,HR-IXPWINDi_r2_v1.2.,2013-04-11 13:10:00,
2013-04-11 09:16:00,46.3,43.2,29.96,NE,44,11.0,17.0,89,0.00,,,0.16,130,HR-IXPWINDi_r2_v1.2.,2013-04-11 13:16:00,
2013-04-11 09:21:00,46.3,43.2,29.97,North,5,5.0,17.0,89,0.00,,,0.16,127,HR-IXPWINDi_r2_v1.2.,2013-04-11 13:21:00,
2013-04-11 09:26:00,46.3,43.2,29.98,North,355,5.0,15.0,89,0.00,,,0.16,91,HR-IXPWINDi_r2_v1.2.,2013-04-11 13:26:00,
2013-04-11 09:31:00,46.2,42.8,29.98,NNE,18,11.0,15.0,88,0.00,,,0.16,91,HR-IXPWINDi_r2_v1.2.,2013-04-11 13:31:00,
2013-04-11 09:36:00,46.1,42.7,29.99,North,9,7.0,15.0,88,0.00,,,0.16,69,HR-IXPWINDi_r2_v1.2.,2013-04-11 13:36:00,
2013-04-11 09:41:00,45.9,42.2,29.99,NNE,30,14.0,14.0,87,0.00,,,0.16,81,HR-IXPWINDi_r2_v1.2.,2013-04-11 13:41:00,
2013-04-11 09:47:00,45.5,41.5,29.99,NNE,28,12.0,15.0,86,0.00,,,0.16,95,HR-IXPWINDi_r2_v1.2.,2013-04-11 13:47:00,
2013-04-11 09:52:00,45.4,41.1,30.00,North,360,5.0,15.0,85,0.00,,,0.16,90,HR-IXPWINDi_r2_v1.2.,2013-04-11 13:52:00,
2013-04-11 09:57:00,45.5,41.2,30.00,NE,40,4.0,14.0,85,0.00,,,0.16,83,HR-IXPWINDi_r2_v1.2.,2013-04-11 13:57:00,
2013-04-11 10:03:00,45.6,41.3,30.00,NNE,19,7.0,10.0,85,0.00,,,0.16,88,HR-IXPWINDi_r2_v1.2.,2013-04-11 14:03:00,
2013-04-11 10:08:00,45.8,41.8,30.00,NE,49,5.0,10.0,86,0.00,,,0.16,109,HR-IXPWINDi_r2_v1.2.,2013-04-11 14:08:00,
2013-04-11 10:13:00,45.9,41.3,30.00,NNE,24,5.0,12.0,84,0.00,,,0.16,121,HR-IXPWINDi_r2_v1.2.,2013-04-11 14:13:00,
2013-04-11 10:18:00,46.0,41.1,30.00,NE,49,6.0,12.0,83,0.00,,,0.16,146,HR-IXPWINDi_r2_v1.2.,2013-04-11 14:18:00,
2013-04-11 10:23:00,46.6,41.7,29.99,NE,53,3.0,10.0,83,0.00,,,0.16,262,HR-IXPWINDi_r2_v1.2.,2013-04-11 14:23:00,
2013-04-11 10:29:00,47.3,41.7,29.99,NNE,20,8.0,10.0,81,0.00,,,0.16,192,HR-IXPWINDi_r2_v1.2.,2013-04-11 14:29:00,
2013-04-11 10:34:00,47.3,41.4,29.99,NNE,13,2.0,9.0,80,0.00,,,0.16,285,HR-IXPWINDi_r2_v1.2.,2013-04-11 14:34:00,
2013-04-11 10:39:00,47.6,41.0,29.99,NNE,14,7.0,8.0,78,0.00,,,0.16,214,HR-IXPWINDi_r2_v1.2.,2013-04-11 14:39:00,
2013-04-11 10:45:00,47.5,40.3,29.99,North,360,5.0,9.0,76,0.00,,,0.16,244,HR-IXPWINDi_r2_v1.2.,2013-04-11 14:45:00,
2013-04-11 10:50:00,47.8,40.9,30.00,NNE,21,4.0,9.0,77,0.00,,,0.16,236,HR-IXPWINDi_r2_v1.2.,2013-04-11 14:50:00,
2013-04-11 10:55:00,48.2,41.3,30.00,NE,40,4.0,8.0,77,0.00,,,0.16,302,HR-IXPWINDi_r2_v1.2.,2013-04-11 14:55:00,
2013-04-11 11:00:00,48.2,40.6,30.01,NNW,347,5.0,8.0,75,0.00,,,0.16,301,HR-IXPWINDi_r2_v1.2.,2013-04-11 15:00:00,
2013-04-11 11:05:00,48.2,40.6,30.01,NNE,17,7.0,10.0,75,0.00,,,0.16,288,HR-IXPWINDi_r2_v1.2.,2013-04-11 15:05:00,
2013-04-11 11:10:00,48.5,40.9,30.00,NE,45,5.0,12.0,75,0.00,,,0.16,385,HR-IXPWINDi_r2_v1.2.,2013-04-11 15:10:00,
2013-04-11 11:15:00,49.0,40.3,30.01,NNE,23,4.0,12.0,72,0.00,,,0.16,334,HR-IXPWINDi_r2_v1.2.,2013-04-11 15:15:00,
2013-04-11 11:20:00,49.6,41.3,30.01,NE,53,4.0,8.0,73,0.00,,,0.16,325,HR-IXPWINDi_r2_v1.2.,2013-04-11 15:20:00,
2013-04-11 11:26:00,49.4,39.6,30.01,ENE,62,4.0,10.0,69,0.00,,,0.16,311,HR-IXPWINDi_r2_v1.2.,2013-04-11 15:26:00,
2013-04-11 11:31:00,49.6,40.2,30.01,NNE,28,5.0,10.0,70,0.00,,,0.16,352,HR-IXPWINDi_r2_v1.2.,2013-04-11 15:31:00,
2013-04-11 11:36:00,49.3,38.4,30.02,NE,56,5.0,11.0,66,0.00,,,0.16,237,HR-IXPWINDi_r2_v1.2.,2013-04-11 15:36:00,
2013-04-11 11:41:00,49.3,39.1,30.02,NNW,342,5.0,11.0,68,0.00,,,0.16,318,HR-IXPWINDi_r2_v1.2.,2013-04-11 15:41:00,
2013-04-11 11:46:00,49.5,39.3,30.02,NE,40,2.0,8.0,68,0.00,,,0.16,253,HR-IXPWINDi_r2_v1.2.,2013-04-11 15:46:00,
2013-04-11 11:51:00,49.5,39.3,30.03,NNE,15,6.0,8.0,68,0.00,,,0.16,269,HR-IXPWINDi_r2_v1.2.,2013-04-11 15:51:00,
2013-04-11 11:56:00,50.0,39.4,30.02,NE,39,5.0,8.0,67,0.00,,,0.16,306,HR-IXPWINDi_r2_v1.2.,2013-04-11 15:56:00,
2013-04-11 12:02:00,49.7,39.1,30.03,East,79,7.0,9.0,67,0.00,,,0.00,253,HR-IXPWINDi_r2_v1.2.,2013-04-11 16:02:00,
2013-04-11 12:07:00,49.3,39.1,30.03,ENE,68,5.0,9.0,68,0.00,,,0.00,255,HR-IXPWINDi_r2_v1.2.,2013-04-11 16:07:00,
2013-04-11 12:12:00,48.9,39.5,30.03,NE,55,2.0,9.0,70,0.00,,,0.00,264,HR-IXPWINDi_r2_v1.2.,2013-04-11 16:12:00,
2013-04-11 12:17:00,49.6,39.8,30.03,ENE,71,8.0,8.0,69,0.00,,,0.00,269,HR-IXPWINDi_r2_v1.2.,2013-04-11 16:17:00,
2013-04-11 12:22:00,48.9,38.8,30.03,ENE,67,9.0,11.0,68,0.00,,,0.00,243,HR-IXPWINDi_r2_v1.2.,2013-04-11 16:22:00,
2013-04-11 12:28:00,48.1,39.8,30.02,East,98,6.0,11.0,73,0.00,,,0.00,276,HR-IXPWINDi_r2_v1.2.,2013-04-11 16:28:00,
2013-04-11 12:33:00,47.2,40.0,30.03,ESE,107,3.0,10.0,76,0.00,,,0.00,343,HR-IXPWINDi_r2_v1.2.,2013-04-11 16:33:00,
2013-04-11 12:38:00,46.9,40.4,30.03,ENE,74,8.0,8.0,78,0.00,,,0.00,348,HR-IXPWINDi_r2_v1.2.,2013-04-11 16:38:00,
2013-04-11 12:43:00,48.1,41.5,30.03,ENE,69,7.0,10.0,78,0.00,,,0.00,436,HR-IXPWINDi_r2_v1.2.,2013-04-11 16:43:00,
2013-04-11 12:48:00,48.3,41.0,30.03,East,79,6.0,10.0,76,0.00,,,0.00,438,HR-IXPWINDi_r2_v1.2.,2013-04-11 16:48:00,
2013-04-11 12:53:00,48.8,41.5,30.03,ENE,57,10.0,11.0,76,0.00,,,0.00,413,HR-IXPWINDi_r2_v1.2.,2013-04-11 16:53:00,
2013-04-11 12:58:00,48.4,41.1,30.02,NE,52,3.0,11.0,76,0.00,,,0.00,443,HR-IXPWINDi_r2_v1.2.,2013-04-11 16:58:00,
2013-04-11 13:04:00,48.6,41.0,30.02,NE,55,9.0,15.0,75,0.00,,,0.00,418,HR-IXPWINDi_r2_v1.2.,2013-04-11 17:04:00,
2013-04-11 13:09:00,47.8,39.9,30.02,ENE,64,12.0,17.0,74,0.00,,,0.00,362,HR-IXPWINDi_r2_v1.2.,2013-04-11 17:09:00,
2013-04-11 13:14:00,46.8,39.6,30.03,ENE,71,11.0,17.0,76,0.00,,,0.00,330,HR-IXPWINDi_r2_v1.2.,2013-04-11 17:14:00,
2013-04-11 13:19:00,47.2,40.3,30.03,NE,46,8.0,15.0,77,0.00,,,0.00,468,HR-IXPWINDi_r2_v1.2.,2013-04-11 17:19:00,
2013-04-11 13:25:00,47.4,39.5,30.04,ENE,66,10.0,15.0,74,0.00,,,0.00,429,HR-IXPWINDi_r2_v1.2.,2013-04-11 17:25:00,
2013-04-11 13:30:00,46.7,39.5,30.04,ENE,65,5.0,16.0,76,0.00,,,0.00,401,HR-IXPWINDi_r2_v1.2.,2013-04-11 17:30:00,
2013-04-11 13:35:00,46.6,39.7,30.04,ENE,59,4.0,16.0,77,0.00,,,0.00,432,HR-IXPWINDi_r2_v1.2.,2013-04-11 17:35:00,
2013-04-11 13:40:00,46.5,39.3,30.04,NE,55,7.0,15.0,76,0.00,,,0.00,420,HR-IXPWINDi_r2_v1.2.,2013-04-11 17:40:00,
2013-04-11 13:45:00,47.2,40.0,30.02,NE,46,9.0,15.0,76,0.00,,,0.00,492,HR-IXPWINDi_r2_v1.2.,2013-04-11 17:45:00,
2013-04-11 13:50:00,47.2,40.0,30.04,ENE,73,7.0,14.0,76,0.00,,,0.00,410,HR-IXPWINDi_r2_v1.2.,2013-04-11 17:50:00,
2013-04-11 13:55:00,47.3,40.1,30.04,East,86,9.0,14.0,76,0.00,,,0.00,420,HR-IXPWINDi_r2_v1.2.,2013-04-11 17:55:00,
2013-04-11 14:01:00,47.1,39.9,30.03,NE,34,7.0,14.0,76,0.00,,,0.00,745,HR-IXPWINDi_r2_v1.2.,2013-04-11 18:01:00,
2013-04-11 14:06:00,47.9,40.7,30.03,NE,41,4.0,14.0,76,0.00,,,0.00,371,HR-IXPWINDi_r2_v1.2.,2013-04-11 18:06:00,
2013-04-11 14:11:00,47.1,39.5,30.03,East,82,9.0,14.0,75,0.00,,,0.00,439,HR-IXPWINDi_r2_v1.2.,2013-04-11 18:11:00,
2013-04-11 14:16:00,46.8,39.6,30.03,East,99,7.0,14.0,76,0.00,,,0.00,459,HR-IXPWINDi_r2_v1.2.,2013-04-11 18:16:00,
2013-04-11 14:21:00,46.1,39.2,30.03,ENE,65,5.0,15.0,77,0.00,,,0.00,338,HR-IXPWINDi_r2_v1.2.,2013-04-11 18:21:00,
2013-04-11 14:26:00,45.9,39.7,30.04,East,81,10.0,15.0,79,0.00,,,0.00,469,HR-IXPWINDi_r2_v1.2.,2013-04-11 18:26:00,
2013-04-11 14:32:00,45.7,39.2,30.03,East,86,9.0,14.0,78,0.00,,,0.00,519,HR-IXPWINDi_r2_v1.2.,2013-04-11 18:32:00,
2013-04-11 14:37:00,45.7,38.9,30.03,NE,49,6.0,15.0,77,0.00,,,0.00,267,HR-IXPWINDi_r2_v1.2.,2013-04-11 18:37:00,
2013-04-11 14:42:00,45.7,39.2,30.03,East,85,7.0,15.0,78,0.00,,,0.00,350,HR-IXPWINDi_r2_v1.2.,2013-04-11 18:42:00,
2013-04-11 14:48:00,45.5,38.7,30.03,NE,48,10.0,14.0,77,0.00,,,0.00,288,HR-IXPWINDi_r2_v1.2.,2013-04-11 18:48:00,
2013-04-11 14:53:00,45.5,38.3,30.03,ENE,57,4.0,15.0,76,0.00,,,0.00,346,HR-IXPWINDi_r2_v1.2.,2013-04-11 18:53:00,
2013-04-11 14:58:00,45.7,38.5,30.04,East,82,10.0,15.0,76,0.00,,,0.00,292,HR-IXPWINDi_r2_v1.2.,2013-04-11 18:58:00,
2013-04-11 15:03:00,45.4,38.2,30.03,ENE,59,9.0,13.0,76,0.00,,,0.00,230,HR-IXPWINDi_r2_v1.2.,2013-04-11 19:03:00,
2013-04-11 15:08:00,45.4,38.6,30.03,ENE,59,7.0,14.0,77,0.00,,,0.00,195,HR-IXPWINDi_r2_v1.2.,2013-04-11 19:08:00,
2013-04-11 15:13:00,45.1,38.3,30.03,ENE,67,8.0,14.0,77,0.00,,,0.00,884,HR-IXPWINDi_r2_v1.2.,2013-04-11 19:13:00,
2013-04-11 15:18:00,45.5,39.0,30.03,ENE,73,5.0,14.0,78,0.00,,,0.00,524,HR-IXPWINDi_r2_v1.2.,2013-04-11 19:18:00,
2013-04-11 15:23:00,45.8,39.0,30.03,ENE,63,10.0,16.0,77,0.00,,,0.00,204,HR-IXPWINDi_r2_v1.2.,2013-04-11 19:23:00,
2013-04-11 15:28:00,45.3,39.1,30.04,East,79,8.0,16.0,79,0.00,,,0.00,169,HR-IXPWINDi_r2_v1.2.,2013-04-11 19:28:00,
2013-04-11 15:34:00,45.0,39.2,30.03,ENE,71,5.0,14.0,80,0.00,,,0.00,357,HR-IXPWINDi_r2_v1.2.,2013-04-11 19:34:00,
2013-04-11 15:39:00,45.3,39.1,30.02,ENE,74,4.0,12.0,79,0.00,,,0.00,336,HR-IXPWINDi_r2_v1.2.,2013-04-11 19:39:00,
2013-04-11 15:44:00,44.9,39.1,30.03,East,97,5.0,10.0,80,0.00,,,0.00,255,HR-IXPWINDi_r2_v1.2.,2013-04-11 19:44:00,
2013-04-11 15:49:00,45.7,39.5,30.02,East,93,7.0,10.0,79,0.00,,,0.00,563,HR-IXPWINDi_r2_v1.2.,2013-04-11 19:49:00,
2013-04-11 15:54:00,45.6,39.4,30.03,East,101,6.0,9.0,79,0.00,,,0.00,371,HR-IXPWINDi_r2_v1.2.,2013-04-11 19:54:00,
2013-04-11 16:00:00,44.9,38.7,30.03,East,90,8.0,11.0,79,0.00,,,0.00,346,HR-IXPWINDi_r2_v1.2.,2013-04-11 20:00:00,
2013-04-11 16:05:00,44.5,39.0,30.03,ESE,117,4.0,11.0,81,0.00,,,0.00,304,HR-IXPWINDi_r2_v1.2.,2013-04-11 20:05:00,
2013-04-11 16:10:00,45.0,39.2,30.02,ESE,109,2.0,11.0,80,0.00,,,0.00,213,HR-IXPWINDi_r2_v1.2.,2013-04-11 20:10:00,
2013-04-11 16:15:00,44.7,38.9,30.03,ESE,119,5.0,9.0,80,0.00,,,0.00,229,HR-IXPWINDi_r2_v1.2.,2013-04-11 20:15:00,
2013-04-11 16:20:00,44.3,38.8,30.02,ESE,121,7.0,9.0,81,0.00,,,0.00,200,HR-IXPWINDi_r2_v1.2.,2013-04-11 20:20:00,
2013-04-11 16:26:00,44.4,39.2,30.03,SE,133,5.0,9.0,82,0.00,,,0.00,165,HR-IXPWINDi_r2_v1.2.,2013-04-11 20:26:00,
2013-04-11 16:31:00,44.5,39.0,30.03,ESE,115,0.0,9.0,81,0.00,,,0.00,250,HR-IXPWINDi_r2_v1.2.,2013-04-11 20:31:00,
2013-04-11 16:36:00,44.9,39.4,30.03,ESE,123,4.0,8.0,81,0.00,,,0.00,163,HR-IXPWINDi_r2_v1.2.,2013-04-11 20:36:00,
2013-04-11 16:41:00,44.9,39.7,30.03,SE,126,6.0,7.0,82,0.00,,,0.00,149,HR-IXPWINDi_r2_v1.2.,2013-04-11 20:41:00,
2013-04-11 16:46:00,44.3,38.8,30.04,ESE,118,0.0,8.0,81,0.00,,,0.00,121,HR-IXPWINDi_r2_v1.2.,2013-04-11 20:46:00,
2013-04-11 16:51:00,44.0,38.8,30.04,ESE,111,2.0,8.0,82,0.00,,,0.00,107,HR-IXPWINDi_r2_v1.2.,2013-04-11 20:51:00,
2013-04-11 16:57:00,43.9,39.0,30.04,SSE,147,4.0,7.0,83,0.00,,,0.00,114,HR-IXPWINDi_r2_v1.2.,2013-04-11 20:57:00,
2013-04-11 17:02:00,44.3,39.4,30.04,SE,132,1.0,7.0,83,0.00,,,0.00,84,HR-IXPWINDi_r2_v1.2.,2013-04-11 21:02:00,
2013-04-11 17:07:00,44.5,39.3,30.05,South,188,2.0,6.0,82,0.00,,,0.00,83,HR-IXPWINDi_r2_v1.2.,2013-04-11 21:07:00,
2013-04-11 17:12:00,44.3,39.1,30.05,ESE,103,1.0,6.0,82,0.00,,,0.00,88,HR-IXPWINDi_r2_v1.2.,2013-04-11 21:12:00,
2013-04-11 17:17:00,44.2,39.3,30.05,SE,136,2.0,6.0,83,0.00,,,0.00,58,HR-IXPWINDi_r2_v1.2.,2013-04-11 21:17:00,
2013-04-11 17:22:00,44.1,38.9,30.05,SE,136,4.0,7.0,82,0.00,,,0.00,76,HR-IXPWINDi_r2_v1.2.,2013-04-11 21:22:00,
2013-04-11 17:27:00,44.0,39.1,30.05,ESE,113,3.0,7.0,83,0.00,,,0.00,76,HR-IXPWINDi_r2_v1.2.,2013-04-11 21:27:00,
2013-04-11 17:33:00,44.0,39.1,30.05,SSE,163,2.0,8.0,83,0.00,,,0.00,56,HR-IXPWINDi_r2_v1.2.,2013-04-11 21:33:00,
2013-04-11 17:38:00,44.0,39.1,30.05,SE,128,5.0,8.0,83,0.00,,,0.00,72,HR-IXPWINDi_r2_v1.2.,2013-04-11 21:38:00,
2013-04-11 17:43:00,43.9,39.6,30.05,SSE,163,0.0,8.0,85,0.00,,,0.00,91,HR-IXPWINDi_r2_v1.2.,2013-04-11 21:43:00,
2013-04-11 17:48:00,44.0,39.1,30.06,SSE,157,1.0,7.0,83,0.00,,,0.00,72,HR-IXPWINDi_r2_v1.2.,2013-04-11 21:48:00,
2013-04-11 17:53:00,44.1,39.5,30.06,SSE,148,0.0,5.0,84,0.00,,,0.00,69,HR-IXPWINDi_r2_v1.2.,2013-04-11 21:53:00,
2013-04-11 17:59:00,44.4,39.8,30.06,South,173,0.0,5.0,84,0.00,,,0.00,67,HR-IXPWINDi_r2_v1.2.,2013-04-11 21:59:00,
2013-04-11 18:04:00,44.1,39.2,30.07,SSE,153,0.0,4.0,83,0.00,,,0.00,39,HR-IXPWINDi_r2_v1.2.,2013-04-11 22:04:00,
2013-04-11 18:09:00,44.0,39.4,30.07,SE,142,1.0,4.0,84,0.00,,,0.00,40,HR-IXPWINDi_r2_v1.2.,2013-04-11 22:09:00,
2013-04-11 18:14:00,44.2,39.6,30.08,South,173,0.0,2.0,84,0.00,,,0.00,32,HR-IXPWINDi_r2_v1.2.,2013-04-11 22:14:00,
2013-04-11 18:20:00,44.2,39.3,30.07,East,83,5.0,5.0,83,0.00,,,0.00,28,HR-IXPWINDi_r2_v1.2.,2013-04-11 22:20:00,
2013-04-11 18:25:00,44.2,39.0,30.07,ENE,78,3.0,5.0,82,0.00,,,0.00,19,HR-IXPWINDi_r2_v1.2.,2013-04-11 22:25:00,
2013-04-11 18:30:00,44.1,38.6,30.08,ESE,107,3.0,5.0,81,0.00,,,0.00,19,HR-IXPWINDi_r2_v1.2.,2013-04-11 22:30:00,
2013-04-11 18:35:00,44.0,38.5,30.08,ENE,63,1.0,5.0,81,0.00,,,0.00,18,HR-IXPWINDi_r2_v1.2.,2013-04-11 22:35:00,
2013-04-11 18:40:00,43.9,38.1,30.08,ENE,59,4.0,5.0,80,0.00,,,0.00,14,HR-IXPWINDi_r2_v1.2.,2013-04-11 22:40:00,
2013-04-11 18:45:00,43.9,38.4,30.08,ENE,74,2.0,6.0,81,0.00,,,0.00,14,HR-IXPWINDi_r2_v1.2.,2013-04-11 22:45:00,
2013-04-11 18:50:00,43.9,38.4,30.09,ENE,68,3.0,6.0,81,0.00,,,0.00,11,HR-IXPWINDi_r2_v1.2.,2013-04-11 22:50:00,
2013-04-11 18:55:00,44.0,38.5,30.08,ENE,59,2.0,5.0,81,0.00,,,0.00,7,HR-IXPWINDi_r2_v1.2.,2013-04-11 22:55:00,
2013-04-11 19:00:00,44.0,38.5,30.08,NE,47,2.0,5.0,81,0.00,,,0.00,5,HR-IXPWINDi_r2_v1.2.,2013-04-11 23:00:00,
2013-04-11 19:06:00,44.0,38.2,30.09,NE,55,2.0,5.0,80,0.00,,,0.00,0,HR-IXPWINDi_r2_v1.2.,2013-04-11 23:06:00,
2013-04-11 19:11:00,44.1,38.6,30.09,NE,36,3.0,4.0,81,0.00,,,0.00,0,HR-IXPWINDi_r2_v1.2.,2013-04-11 23:11:00,
2013-04-11 19:16:00,44.0,38.2,30.09,ENE,73,2.0,4.0,80,0.00,,,0.00,0,HR-IXPWINDi_r2_v1.2.,2013-04-11 23:16:00,
2013-04-11 19:22:00,43.8,38.0,30.09,ENE,66,4.0,5.0,80,0.00,,,0.00,0,HR-IXPWINDi_r2_v1.2.,2013-04-11 23:22:00,
2013-04-11 19:27:00,43.7,37.9,30.09,ENE,63,0.0,5.0,80,0.00,,,0.00,0,HR-IXPWINDi_r2_v1.2.,2013-04-11 23:27:00,
2013-04-11 19:32:00,43.8,38.3,30.08,NE,42,3.0,5.0,81,0.00,,,0.00,0,HR-IXPWINDi_r2_v1.2.,2013-04-11 23:32:00,
2013-04-11 19:37:00,43.8,38.3,30.08,NE,48,2.0,7.0,81,0.00,,,0.00,0,HR-IXPWINDi_r2_v1.2.,2013-04-11 23:37:00,
2013-04-11 19:42:00,43.9,38.4,30.09,North,5,0.0,7.0,81,0.00,,,0.00,0,HR-IXPWINDi_r2_v1.2.,2013-04-11 23:42:00,
2013-04-11 19:47:00,43.9,38.1,30.09,North,5,3.0,3.0,80,0.00,,,0.00,0,HR-IXPWINDi_r2_v1.2.,2013-04-11 23:47:00,
2013-04-11 19:52:00,44.0,37.9,30.08,NE,41,0.0,4.0,79,0.00,,,0.00,0,HR-IXPWINDi_r2_v1.2.,2013-04-11 23:52:00,
2013-04-11 19:58:00,43.9,38.1,30.10,ENE,65,0.0,4.0,80,0.00,,,0.00,0,HR-IXPWINDi_r2_v1.2.,2013-04-11 23:58:00,
2013-04-11 20:03:00,43.9,38.4,30.10,NE,56,3.0,4.0,81,0.00,,,0.00,0,HR-IXPWINDi_r2_v1.2.,2013-04-12 00:03:00,
2013-04-11 20:08:00,43.8,38.3,30.08,NE,53,2.0,7.0,81,0.00,,,0.00,0,HR-IXPWINDi_r2_v1.2.,2013-04-12 00:08:00,
2013-04-11 20:13:00,43.6,38.1,30.10,NE,55,1.0,7.0,81,0.00,,,0.00,0,HR-IXPWINDi_r2_v1.2.,2013-04-12 00:13:00,
2013-04-11 20:19:00,43.6,38.4,30.09,ENE,65,4.0,5.0,82,0.00,,,0.00,0,HR-IXPWINDi_r2_v1.2.,2013-04-12 00:19:00,
2013-04-11 20:24:00,43.5,38.3,30.08,ENE,61,3.0,6.0,82,0.00,,,0.00,0,HR-IXPWINDi_r2_v1.2.,2013-04-12 00:24:00,
2013-04-11 20:29:00,43.4,38.2,30.09,NE,48,4.0,6.0,82,0.00,,,0.00,0,HR-IXPWINDi_r2_v1.2.,2013-04-12 00:29:00,
2013-04-11 20:34:00,43.4,38.2,30.10,East,80,1.0,6.0,82,0.00,,,0.00,0,HR-IXPWINDi_r2_v1.2.,2013-04-12 00:34:00,
2013-04-11 20:39:00,43.5,38.6,30.10,NE,44,2.0,6.0,83,0.00,,,0.00,0,HR-IXPWINDi_r2_v1.2.,2013-04-12 00:39:00,
2013-04-11 20:44:00,43.5,38.6,30.10,NE,41,2.0,6.0,83,0.00,,,0.00,0,HR-IXPWINDi_r2_v1.2.,2013-04-12 00:44:00,
2013-04-11 20:49:00,43.5,38.3,30.10,NE,40,1.0,6.0,82,0.00,,,0.00,0,HR-IXPWINDi_r2_v1.2.,2013-04-12 00:49:00,
2013-04-11 20:55:00,43.5,38.6,30.10,NE,55,2.0,5.0,83,0.00,,,0.00,0,HR-IXPWINDi_r2_v1.2.,2013-04-12 00:55:00,
2013-04-11 21:00:00,43.5,38.6,30.11,NE,47,2.0,5.0,83,0.00,,,0.00,0,HR-IXPWINDi_r2_v1.2.,2013-04-12 01:00:00,
2013-04-11 21:05:00,43.5,38.6,30.11,NE,36,3.0,5.0,83,0.00,,,0.00,0,HR-IXPWINDi_r2_v1.2.,2013-04-12 01:05:00,
2013-04-11 21:10:00,43.5,38.6,30.10,NE,55,2.0,7.0,83,0.00,,,0.00,0,HR-IXPWINDi_r2_v1.2.,2013-04-12 01:10:00,
2013-04-11 21:15:00,43.4,38.5,30.12,NE,38,1.0,7.0,83,0.00,,,0.00,0,HR-IXPWINDi_r2_v1.2.,2013-04-12 01:15:00,
2013-04-11 21:20:00,43.5,38.6,30.11,NE,38,3.0,5.0,83,0.00,,,0.00,0,HR-IXPWINDi_r2_v1.2.,2013-04-12 01:20:00,
2013-04-11 21:26:00,43.5,38.3,30.11,NE,38,2.0,5.0,82,0.00,,,0.00,0,HR-IXPWINDi_r2_v1.2.,2013-04-12 01:26:00,
2013-04-11 21:31:00,43.5,38.0,30.12,NE,38,1.0,4.0,81,0.00,,,0.00,0,HR-IXPWINDi_r2_v1.2.,2013-04-12 01:31:00,
2013-04-11 21:36:00,43.6,38.1,30.11,NE,38,1.0,3.0,81,0.00,,,0.00,0,HR-IXPWINDi_r2_v1.2.,2013-04-12 01:36:00,
2013-04-11 21:41:00,43.6,37.8,30.11,NE,38,1.0,4.0,80,0.00,,,0.00,0,HR-IXPWINDi_r2_v1.2.,2013-04-12 01:41:00,
2013-04-11 21:46:00,43.6,37.8,30.12,NE,38,1.0,4.0,80,0.00,,,0.00,0,HR-IXPWINDi_r2_v1.2.,2013-04-12 01:46:00,
2013-04-11 21:51:00,43.7,37.6,30.13,NE,39,0.0,2.0,79,0.00,,,0.00,0,HR-IXPWINDi_r2_v1.2.,2013-04-12 01:51:00,
2013-04-11 21:57:00,43.7,37.6,30.13,NE,38,3.0,3.0,79,0.00,,,0.00,0,HR-IXPWINDi_r2_v1.2.,2013-04-12 01:57:00,
2013-04-11 22:03:00,43.8,37.7,30.13,NE,38,1.0,3.0,79,0.00,,,0.00,0,HR-IXPWINDi_r2_v1.2.,2013-04-12 02:03:00,
2013-04-11 22:08:00,43.9,37.8,30.13,NE,38,2.0,4.0,79,0.00,,,0.00,0,HR-IXPWINDi_r2_v1.2.,2013-04-12 02:08:00,
2013-04-11 22:13:00,44.0,37.9,30.13,NE,38,0.0,4.0,79,0.00,,,0.00,0,HR-IXPWINDi_r2_v1.2.,2013-04-12 02:13:00,
2013-04-11 22:18:00,44.1,38.0,30.13,NE,38,0.0,3.0,79,0.00,,,0.00,0,HR-IXPWINDi_r2_v1.2.,2013-04-12 02:18:00,
2013-04-11 22:23:00,44.1,37.6,30.12,NE,38,0.0,2.0,78,0.00,,,0.00,0,HR-IXPWINDi_r2_v1.2.,2013-04-12 02:23:00,
2013-04-11 22:28:00,44.1,38.0,30.12,NE,38,0.0,2.0,79,0.00,,,0.00,0,HR-IXPWINDi_r2_v1.2.,2013-04-12 02:28:00,
2013-04-11 22:34:00,44.2,37.7,30.13,NE,38,0.0,2.0,78,0.00,,,0.00,0,HR-IXPWINDi_r2_v1.2.,2013-04-12 02:34:00,
2013-04-11 22:39:00,44.2,37.1,30.13,NE,38,0.0,2.0,76,0.00,,,0.00,0,HR-IXPWINDi_r2_v1.2.,2013-04-12 02:39:00,
2013-04-11 22:44:00,44.3,37.2,30.14,NE,38,0.0,2.0,76,0.00,,,0.00,0,HR-IXPWINDi_r2_v1.2.,2013-04-12 02:44:00,
2013-04-11 22:49:00,44.2,37.4,30.14,NE,38,1.0,2.0,77,0.00,,,0.00,0,HR-IXPWINDi_r2_v1.2.,2013-04-12 02:49:00,
2013-04-11 22:54:00,44.1,37.3,30.14,NE,38,1.0,2.0,77,0.00,,,0.00,0,HR-IXPWINDi_r2_v1.2.,2013-04-12 02:54:00,
2013-04-11 23:00:00,44.0,37.2,30.15,NE,38,1.0,3.0,77,0.00,,,0.00,0,HR-IXPWINDi_r2_v1.2.,2013-04-12 03:00:00,
2013-04-11 23:05:00,43.9,37.1,30.15,NE,38,2.0,3.0,77,0.00,,,0.00,0,HR-IXPWINDi_r2_v1.2.,2013-04-12 03:05:00,
2013-04-11 23:10:00,43.8,36.0,30.14,North,5,2.0,4.0,74,0.00,,,0.00,0,HR-IXPWINDi_r2_v1.2.,2013-04-12 03:10:00,
2013-04-11 23:15:00,43.7,36.3,30.14,NNE,31,3.0,5.0,75,0.00,,,0.00,0,HR-IXPWINDi_r2_v1.2.,2013-04-12 03:15:00,
2013-04-11 23:20:00,43.5,35.0,30.14,NNE,30,0.0,5.0,72,0.00,,,0.00,0,HR-IXPWINDi_r2_v1.2.,2013-04-12 03:20:00,
2013-04-11 23:25:00,43.4,34.9,30.14,NNE,31,2.0,4.0,72,0.00,,,0.00,0,HR-IXPWINDi_r2_v1.2.,2013-04-12 03:25:00,
2013-04-11 23:30:00,43.3,34.1,30.13,NNE,30,2.0,3.0,70,0.00,,,0.00,0,HR-IXPWINDi_r2_v1.2.,2013-04-12 03:30:00,
2013-04-11 23:35:00,43.3,34.1,30.13,NNE,30,3.0,4.0,70,0.00,,,0.00,0,HR-IXPWINDi_r2_v1.2.,2013-04-12 03:35:00,
2013-04-11 23:40:00,43.3,34.5,30.14,NNE,30,3.0,4.0,71,0.00,,,0.00,0,HR-IXPWINDi_r2_v1.2.,2013-04-12 03:40:00,
2013-04-11 23:46:00,43.2,33.7,30.14,NNE,31,2.0,4.0,69,0.00,,,0.00,0,HR-IXPWINDi_r2_v1.2.,2013-04-12 03:46:00,
2013-04-11 23:51:00,43.3,33.8,30.14,NNE,30,2.0,4.0,69,0.00,,,0.00,0,HR-IXPWINDi_r2_v1.2.,2013-04-12 03:51:00,
2013-04-11 23:56:00,43.3,33.8,30.14,NNE,30,2.0,4.0,69,0.00,,,0.00,0,HR-IXPWINDi_r2_v1.2.,2013-04-12 03:56:00,